GIA231 WAHS-WIII

Flight info

Callsign GIA231
Flight time 0h 46m
Altitude 30000
Route KIDET W16 IMU
Aircraft B738/M-SDE2E3FGHIRWXY/LB1

Departure

Time 2026-04-27 00:22
Airport Jenderal Ahmad Yani Airport (WAHS)

Arrival

Time 2026-04-27 01:08
Airport Soekarno-Hatta International Airport (WIII)
Time Latitude Longitude Altitude Speed Heading
2026-04-27 00:06 -6.96745 110.37483 18 ft 0 kts 40°
2026-04-27 00:13 -6.96748 110.37480 18 ft 3 kts 40°
2026-04-27 00:13 -6.96769 110.37465 27 ft 4 kts 28°
2026-04-27 00:13 -6.96793 110.37455 18 ft 4 kts
2026-04-27 00:14 -6.96817 110.37457 18 ft 4 kts 316°
2026-04-27 00:14 -6.96824 110.37464 19 ft 0 kts 310°
2026-04-27 00:16 -6.96822 110.37462 19 ft 1 kts 310°
2026-04-27 00:16 -6.96806 110.37443 19 ft 6 kts 310°
2026-04-27 00:16 -6.96768 110.37397 18 ft 11 kts 309°
2026-04-27 00:17 -6.96709 110.37326 18 ft 15 kts 311°
2026-04-27 00:17 -6.96640 110.37244 18 ft 13 kts 310°
2026-04-27 00:17 -6.96619 110.37194 18 ft 3 kts 252°
2026-04-27 00:17 -6.96645 110.37170 17 ft 11 kts 219°
2026-04-27 00:18 -6.96723 110.37109 14 ft 17 kts 219°
2026-04-27 00:18 -6.96787 110.37007 8 ft 19 kts 285°
2026-04-27 00:18 -6.96708 110.36904 5 ft 18 kts 311°
2026-04-27 00:18 -6.96627 110.36808 5 ft 18 kts 310°
2026-04-27 00:19 -6.96548 110.36715 5 ft 17 kts 310°
2026-04-27 00:19 -6.96473 110.36625 4 ft 16 kts 310°
2026-04-27 00:19 -6.96400 110.36539 4 ft 16 kts 310°
2026-04-27 00:19 -6.96330 110.36456 4 ft 15 kts 310°
2026-04-27 00:20 -6.96287 110.36377 3 ft 10 kts 277°
2026-04-27 00:20 -6.96245 110.36349 3 ft 5 kts 36°
2026-04-27 00:20 -6.96245 110.36371 3 ft 3 kts 125°
2026-04-27 00:20 -6.96262 110.36384 3 ft 3 kts 144°
2026-04-27 00:21 -6.96278 110.36399 5 ft 5 kts 134°
2026-04-27 00:21 -6.96457 110.36609 3 ft 78 kts 130°
2026-04-27 00:21 -6.96963 110.37207 4 ft 144 kts 130°
2026-04-27 00:21 -6.97700 110.38055 436 ft 164 kts 129°
2026-04-27 00:22 -6.98397 110.38969 1190 ft 169 kts 115°
2026-04-27 00:22 -6.98788 110.40088 1961 ft 169 kts 109°
2026-04-27 00:22 -6.99166 110.41272 2521 ft 189 kts 108°
2026-04-27 00:22 -6.99585 110.42626 2883 ft 215 kts 108°
2026-04-27 00:23 -7.00039 110.44128 3294 ft 232 kts 108°
2026-04-27 00:23 -7.00511 110.45737 3777 ft 251 kts 104°
2026-04-27 00:23 -7.00463 110.47564 4212 ft 274 kts 71°
2026-04-27 00:23 -6.99390 110.49144 5087 ft 278 kts 40°
2026-04-27 00:24 -6.97713 110.50093 6045 ft 277 kts 24°
2026-04-27 00:24 -6.95929 110.50845 6937 ft 277 kts 25°
2026-04-27 00:24 -6.94163 110.51613 7831 ft 277 kts 24°
2026-04-27 00:24 -6.92380 110.52366 8496 ft 286 kts 24°
2026-04-27 00:25 -6.90537 110.53142 8497 ft 293 kts 24°
2026-04-27 00:25 -6.88637 110.53941 9001 ft 298 kts 24°
2026-04-27 00:25 -6.86733 110.54743 9886 ft 296 kts 25°
2026-04-27 00:25 -6.84815 110.55554 10502 ft 306 kts 25°
2026-04-27 00:26 -6.82772 110.56419 10693 ft 329 kts 24°
2026-04-27 00:26 -6.80621 110.57330 11169 ft 340 kts 24°
2026-04-27 00:26 -6.78416 110.58244 11903 ft 344 kts 20°
2026-04-27 00:26 -6.76041 110.58610 12622 ft 351 kts 358°
2026-04-27 00:27 -6.73664 110.58005 13353 ft 358 kts 334°
2026-04-27 00:27 -6.71669 110.56496 14001 ft 364 kts 311°
2026-04-27 00:27 -6.70164 110.54440 14646 ft 367 kts 304°
2026-04-27 00:27 -6.68742 110.52292 15276 ft 371 kts 303°
2026-04-27 00:28 -6.67322 110.50103 15902 ft 375 kts 303°
2026-04-27 00:28 -6.65883 110.47893 16539 ft 379 kts 303°
2026-04-27 00:28 -6.64420 110.45670 17176 ft 383 kts 303°
2026-04-27 00:28 -6.62933 110.43430 17783 ft 387 kts 304°
2026-04-27 00:29 -6.61423 110.41170 18363 ft 391 kts 304°
2026-04-27 00:29 -6.59899 110.38895 18902 ft 394 kts 304°
2026-04-27 00:29 -6.58361 110.36603 19460 ft 396 kts 304°
2026-04-27 00:29 -6.56810 110.34294 19998 ft 399 kts 304°
2026-04-27 00:30 -6.55252 110.31972 20520 ft 403 kts 304°
2026-04-27 00:30 -6.53676 110.29624 21042 ft 406 kts 304°
2026-04-27 00:30 -6.52092 110.27265 21568 ft 408 kts 304°
2026-04-27 00:30 -6.50527 110.24873 22077 ft 412 kts 300°
2026-04-27 00:31 -6.49284 110.22274 22557 ft 415 kts 290°
2026-04-27 00:31 -6.48484 110.19478 23064 ft 417 kts 282°
2026-04-27 00:31 -6.47873 110.16616 23516 ft 420 kts 281°
2026-04-27 00:31 -6.47291 110.13722 23907 ft 423 kts 281°
2026-04-27 00:32 -6.46709 110.10814 24313 ft 425 kts 281°
2026-04-27 00:32 -6.46118 110.07900 24709 ft 427 kts 282°
2026-04-27 00:32 -6.45511 110.04963 25112 ft 430 kts 282°
2026-04-27 00:32 -6.44894 110.02017 25505 ft 432 kts 282°
2026-04-27 00:33 -6.44267 109.99056 25885 ft 434 kts 282°
2026-04-27 00:33 -6.43634 109.96075 26261 ft 437 kts 282°
2026-04-27 00:33 -6.43004 109.93122 26617 ft 439 kts 282°
2026-04-27 00:33 -6.42363 109.90113 26983 ft 441 kts 282°
2026-04-27 00:34 -6.41719 109.87095 27388 ft 442 kts 282°
2026-04-27 00:34 -6.41075 109.84073 27844 ft 442 kts 282°
2026-04-27 00:34 -6.40428 109.81040 27854 ft 444 kts 282°
2026-04-27 00:34 -6.39774 109.77974 27867 ft 441 kts 282°
2026-04-27 00:35 -6.39143 109.75011 27875 ft 439 kts 282°
2026-04-27 00:35 -6.38502 109.72010 27887 ft 440 kts 282°
2026-04-27 00:35 -6.37860 109.69003 27889 ft 440 kts 282°
2026-04-27 00:35 -6.37217 109.65990 27886 ft 441 kts 282°
2026-04-27 00:36 -6.36573 109.62972 27885 ft 442 kts 282°
2026-04-27 00:36 -6.35928 109.59952 27885 ft 442 kts 282°
2026-04-27 00:36 -6.35283 109.56932 27884 ft 442 kts 282°
2026-04-27 00:36 -6.34636 109.53906 27884 ft 442 kts 282°
2026-04-27 00:37 -6.33972 109.50892 27884 ft 442 kts 283°
2026-04-27 00:37 -6.33248 109.47891 27887 ft 442 kts 284°
2026-04-27 00:37 -6.32498 109.44897 27885 ft 441 kts 284°
2026-04-27 00:37 -6.31742 109.41912 27884 ft 441 kts 284°
2026-04-27 00:38 -6.30989 109.38928 27886 ft 440 kts 284°
2026-04-27 00:38 -6.30240 109.35942 27892 ft 440 kts 284°
2026-04-27 00:38 -6.29748 109.33966 27889 ft 440 kts 284°
2026-04-27 00:38 -6.29007 109.30981 27890 ft 440 kts 284°
2026-04-27 00:39 -6.28022 109.26994 27891 ft 440 kts 284°
2026-04-27 00:39 -6.27535 109.25020 27898 ft 440 kts 284°
2026-04-27 00:39 -6.26800 109.22039 27896 ft 440 kts 284°
2026-04-27 00:39 -6.26063 109.19056 27900 ft 440 kts 284°
2026-04-27 00:40 -6.25079 109.15066 27898 ft 440 kts 284°
2026-04-27 00:40 -6.24591 109.13090 27897 ft 440 kts 284°
2026-04-27 00:40 -6.23854 109.10106 27896 ft 440 kts 284°
2026-04-27 00:40 -6.23116 109.07119 27902 ft 440 kts 284°
2026-04-27 00:41 -6.22378 109.04134 27902 ft 440 kts 284°
2026-04-27 00:41 -6.21640 109.01150 27900 ft 441 kts 284°
2026-04-27 00:41 -6.20901 108.98158 27904 ft 441 kts 284°
2026-04-27 00:41 -6.20162 108.95171 27906 ft 441 kts 284°
2026-04-27 00:42 -6.19422 108.92180 27905 ft 441 kts 284°
2026-04-27 00:42 -6.18682 108.89191 27903 ft 441 kts 284°
2026-04-27 00:42 -6.17942 108.86203 27902 ft 441 kts 284°
2026-04-27 00:42 -6.17202 108.83214 27904 ft 441 kts 284°
2026-04-27 00:43 -6.16460 108.80218 27907 ft 441 kts 284°
2026-04-27 00:43 -6.15719 108.77227 27903 ft 441 kts 284°
2026-04-27 00:43 -6.14978 108.74234 27880 ft 442 kts 284°
2026-04-27 00:43 -6.14233 108.71230 27562 ft 443 kts 284°
2026-04-27 00:44 -6.13491 108.68235 27275 ft 441 kts 284°
2026-04-27 00:44 -6.12749 108.65242 26988 ft 442 kts 284°
2026-04-27 00:44 -6.12004 108.62240 26705 ft 443 kts 284°
2026-04-27 00:44 -6.11258 108.59233 26429 ft 444 kts 284°
2026-04-27 00:45 -6.10511 108.56224 26170 ft 444 kts 284°
2026-04-27 00:45 -6.09772 108.53247 25920 ft 445 kts 284°
2026-04-27 00:45 -6.09025 108.50238 25669 ft 444 kts 284°
2026-04-27 00:45 -6.08288 108.47269 25422 ft 444 kts 284°
2026-04-27 00:46 -6.07532 108.44227 25194 ft 442 kts 284°
2026-04-27 00:46 -6.06790 108.41240 24985 ft 440 kts 284°
2026-04-27 00:46 -6.06052 108.38270 24773 ft 437 kts 284°
2026-04-27 00:46 -6.05317 108.35312 24563 ft 435 kts 284°
2026-04-27 00:47 -6.04584 108.32365 24351 ft 434 kts 284°
2026-04-27 00:47 -6.03855 108.29434 24142 ft 432 kts 284°
2026-04-27 00:47 -6.03129 108.26513 23931 ft 430 kts 284°
2026-04-27 00:47 -6.02404 108.23600 23734 ft 429 kts 284°
2026-04-27 00:48 -6.01681 108.20695 23527 ft 428 kts 284°
2026-04-27 00:48 -6.00960 108.17799 23286 ft 427 kts 284°
2026-04-27 00:48 -6.00240 108.14909 23045 ft 426 kts 284°
2026-04-27 00:48 -5.99523 108.12029 22801 ft 425 kts 284°
2026-04-27 00:49 -5.98808 108.09160 22561 ft 423 kts 284°
2026-04-27 00:49 -5.98094 108.06292 22325 ft 422 kts 284°
2026-04-27 00:49 -5.97383 108.03437 22085 ft 421 kts 284°
2026-04-27 00:49 -5.96674 108.00594 21856 ft 419 kts 284°
2026-04-27 00:50 -5.96085 107.97738 21608 ft 418 kts 274°
2026-04-27 00:50 -5.96060 107.91938 21092 ft 415 kts 269°
2026-04-27 00:50 -5.96108 107.89033 20699 ft 415 kts 269°
2026-04-27 00:51 -5.96143 107.86176 20307 ft 403 kts 269°
2026-04-27 00:51 -5.96161 107.83406 19922 ft 388 kts 269°
2026-04-27 00:51 -5.96168 107.80740 19545 ft 376 kts 269°
2026-04-27 00:51 -5.96170 107.78164 19259 ft 362 kts 269°
2026-04-27 00:52 -5.96169 107.75662 18826 ft 355 kts 269°
2026-04-27 00:52 -5.96168 107.73206 18401 ft 349 kts 269°
2026-04-27 00:52 -5.96168 107.70791 17935 ft 343 kts 269°
2026-04-27 00:52 -5.96167 107.68416 17494 ft 336 kts 269°
2026-04-27 00:53 -5.96166 107.66096 17071 ft 330 kts 269°
2026-04-27 00:53 -5.96166 107.63803 16662 ft 325 kts 269°
2026-04-27 00:53 -5.96166 107.61548 16263 ft 320 kts 269°
2026-04-27 00:53 -5.96167 107.59332 15870 ft 315 kts 269°
2026-04-27 00:54 -5.96167 107.57143 15501 ft 314 kts 269°
2026-04-27 00:54 -5.96168 107.54944 15123 ft 316 kts 269°
2026-04-27 00:54 -5.96169 107.52732 14718 ft 318 kts 269°
2026-04-27 00:54 -5.96169 107.50504 14324 ft 320 kts 269°
2026-04-27 00:55 -5.96169 107.48258 13926 ft 322 kts 269°
2026-04-27 00:55 -5.96169 107.46001 13489 ft 324 kts 269°
2026-04-27 00:55 -5.96169 107.43734 13069 ft 325 kts 269°
2026-04-27 00:55 -5.96169 107.41465 12654 ft 325 kts 269°
2026-04-27 00:56 -5.96168 107.39194 12251 ft 325 kts 269°
2026-04-27 00:56 -5.96168 107.36924 11847 ft 325 kts 269°
2026-04-27 00:56 -5.96167 107.34667 11441 ft 320 kts 269°
2026-04-27 00:56 -5.96167 107.32451 11042 ft 313 kts 269°
2026-04-27 00:57 -5.96165 107.30292 10654 ft 306 kts 269°
2026-04-27 00:57 -5.96163 107.28173 10291 ft 300 kts 269°
2026-04-27 00:57 -5.96160 107.26109 9973 ft 293 kts 269°
2026-04-27 00:57 -5.96157 107.24111 9598 ft 288 kts 269°
2026-04-27 00:58 -5.96155 107.22094 9213 ft 282 kts 269°
2026-04-27 00:58 -5.96152 107.20169 8855 ft 277 kts 269°
2026-04-27 00:58 -5.96150 107.18249 8489 ft 272 kts 269°
2026-04-27 00:58 -5.96148 107.16362 8156 ft 268 kts 269°
2026-04-27 00:59 -5.96145 107.14506 7815 ft 263 kts 269°
2026-04-27 00:59 -5.96142 107.12682 7488 ft 260 kts 269°
2026-04-27 00:59 -5.96140 107.10881 7158 ft 256 kts 269°
2026-04-27 00:59 -5.96419 107.09144 6855 ft 250 kts 252°
2026-04-27 01:00 -5.97002 107.07519 6570 ft 245 kts 248°
2026-04-27 01:00 -5.97642 107.05946 6291 ft 242 kts 246°
2026-04-27 01:00 -5.98268 107.04411 6025 ft 232 kts 248°
2026-04-27 01:00 -5.98865 107.02914 5723 ft 232 kts 248°
2026-04-27 01:01 -5.99460 107.01426 5426 ft 225 kts 247°
2026-04-27 01:01 -6.00029 107.00007 5163 ft 214 kts 247°
2026-04-27 01:01 -6.00571 106.98651 4914 ft 205 kts 247°
2026-04-27 01:01 -6.01093 106.97344 4683 ft 199 kts 247°
2026-04-27 01:02 -6.01602 106.96068 4469 ft 195 kts 247°
2026-04-27 01:02 -6.02109 106.94795 4248 ft 197 kts 247°
2026-04-27 01:02 -6.02623 106.93508 4086 ft 201 kts 247°
2026-04-27 01:02 -6.03146 106.92196 4042 ft 203 kts 247°
2026-04-27 01:03 -6.03667 106.90892 4018 ft 199 kts 247°
2026-04-27 01:03 -6.04182 106.89600 4009 ft 200 kts 247°
2026-04-27 01:03 -6.04707 106.88285 3843 ft 204 kts 247°
2026-04-27 01:03 -6.05233 106.86966 3682 ft 202 kts 247°
2026-04-27 01:04 -6.05751 106.85667 3495 ft 199 kts 247°
2026-04-27 01:04 -6.06262 106.84389 3325 ft 196 kts 247°
2026-04-27 01:04 -6.06767 106.83123 3177 ft 196 kts 247°
2026-04-27 01:04 -6.07278 106.81842 3038 ft 198 kts 248°
2026-04-27 01:05 -6.07795 106.80548 2794 ft 201 kts 248°
2026-04-27 01:05 -6.08313 106.79251 2536 ft 199 kts 247°
2026-04-27 01:05 -6.08821 106.77976 2270 ft 194 kts 247°
2026-04-27 01:05 -6.09316 106.76738 2003 ft 186 kts 247°
2026-04-27 01:06 -6.09782 106.75569 1766 ft 175 kts 247°
2026-04-27 01:06 -6.10223 106.74462 1572 ft 171 kts 247°
2026-04-27 01:06 -6.10659 106.73374 1324 ft 165 kts 247°
2026-04-27 01:06 -6.11073 106.72337 1091 ft 155 kts 247°
2026-04-27 01:07 -6.11466 106.71353 919 ft 151 kts 247°
2026-04-27 01:07 -6.11853 106.70384 726 ft 147 kts 247°
2026-04-27 01:07 -6.12233 106.69431 521 ft 146 kts 247°
2026-04-27 01:07 -6.12603 106.68473 297 ft 148 kts 248°
2026-04-27 01:08 -6.12994 106.67521 121 ft 147 kts 247°
2026-04-27 01:08 -6.13365 106.66598 43 ft 128 kts 248°
2026-04-27 01:08 -6.13616 106.65966 36 ft 67 kts 248°
2026-04-27 01:08 -6.13737 106.65653 38 ft 38 kts 253°
2026-04-27 01:09 -6.13749 106.65439 39 ft 21 kts 278°
2026-04-27 01:09 -6.13702 106.65343 38 ft 15 kts 316°
2026-04-27 01:09 -6.13707 106.65250 38 ft 14 kts 248°
2026-04-27 01:09 -6.13742 106.65161 38 ft 13 kts 248°
2026-04-27 01:10 -6.13776 106.65077 38 ft 13 kts 248°
2026-04-27 01:10 -6.13790 106.64992 38 ft 13 kts 292°
2026-04-27 01:10 -6.13718 106.64950 38 ft 12 kts 339°
2026-04-27 01:10 -6.13639 106.64919 38 ft 12 kts 339°
2026-04-27 01:11 -6.13563 106.64890 37 ft 12 kts 339°
2026-04-27 01:11 -6.13486 106.64860 37 ft 13 kts 339°
2026-04-27 01:11 -6.13390 106.64822 37 ft 17 kts 338°
2026-04-27 01:11 -6.13267 106.64772 37 ft 21 kts 338°
2026-04-27 01:12 -6.13125 106.64715 40 ft 22 kts 338°
2026-04-27 01:12 -6.12983 106.64657 50 ft 22 kts 338°
2026-04-27 01:12 -6.12822 106.64593 40 ft 28 kts 340°
2026-04-27 01:12 -6.12649 106.64526 37 ft 25 kts 338°
2026-04-27 01:13 -6.12494 106.64464 37 ft 22 kts 338°
2026-04-27 01:13 -6.12355 106.64407 37 ft 21 kts 336°
2026-04-27 01:13 -6.12228 106.64358 38 ft 18 kts 340°
2026-04-27 01:13 -6.12126 106.64340 38 ft 14 kts 28°
2026-04-27 01:14 -6.12078 106.64431 37 ft 16 kts 68°
2026-04-27 01:14 -6.12035 106.64538 38 ft 17 kts 68°
2026-04-27 01:14 -6.11987 106.64656 38 ft 19 kts 68°
2026-04-27 01:14 -6.11935 106.64784 38 ft 21 kts 67°
2026-04-27 01:15 -6.11881 106.64923 37 ft 22 kts 69°
2026-04-27 01:15 -6.11823 106.65070 38 ft 23 kts 68°
2026-04-27 01:15 -6.11761 106.65226 38 ft 25 kts 68°
2026-04-27 01:15 -6.11695 106.65391 36 ft 26 kts 68°
2026-04-27 01:16 -6.11625 106.65563 37 ft 27 kts 68°
2026-04-27 01:16 -6.11552 106.65743 36 ft 28 kts 68°
2026-04-27 01:16 -6.11482 106.65922 37 ft 26 kts 69°
2026-04-27 01:16 -6.11422 106.66076 38 ft 22 kts 68°
2026-04-27 01:17 -6.11370 106.66205 38 ft 16 kts 68°
2026-04-27 01:17 -6.11362 106.66292 36 ft 13 kts 127°
2026-04-27 01:17 -6.11449 106.66335 37 ft 15 kts 158°
2026-04-27 01:17 -6.11541 106.66371 37 ft 14 kts 158°
2026-04-27 01:18 -6.11623 106.66405 37 ft 11 kts 149°
2026-04-27 01:18 -6.11641 106.66470 36 ft 11 kts 69°
2026-04-27 01:18 -6.11648 106.66523 36 ft 7 kts 139°
2026-04-27 01:18 -6.11687 106.66543 37 ft 4 kts 158°
2026-04-27 01:19 -6.11704 106.66549 37 ft 2 kts 162°
2026-04-27 01:19 -6.11706 106.66549 37 ft 0 kts 163°